Location: Unspecified
(34.4950°S, 58.5160°W)
Time: 00:09:14
(UTC+00:00)

CZ-3 Stage 3 - Pass Details

Date: 19 April 2026
Orbit: 434 x 34614 km, 31.1° (Epoch: 16 May)

Event Time Altitude Azimuth Distance (km) Brightness Sun altitude
Rises 23:06:22 0° 326° (NW) 22,464 10.4 -21.2°
Reaches altitude 10° 00:02:02 10° 328° (NNW) 29,792 10.7 -32.7°
Drops below altitude 10° 04:22:19 10° 296° (WNW) 36,845 10.8 -65.8°
Enters shadow 06:51:32 11° 277° (W) 18,698 9.0 -43.3°
Exits shadow 07:41:33 51° 282° (WNW) 3,500 5.3 -33.3°
Maximum altitude 07:46:09 76° 352° (N) 2,001 4.3 -32.4°
Sets 07:53:15 0° 80° (E) 3,227 6.8 -31.0°
